sat.trackr.live / text

‹ back to catalog

STARLINK-3790

NORAD 52274 · 2022-041P

PAYLOAD ACTIVE UNKNOWN

§ Identity

Operator
Country
US
Launch date
2022-04-21
Launch site
AFETR
Launch vehicle
Mass (kg)
RCS (m²)

Purposes: comms

External: N2YO · Heavens-Above · Gunter

§ Orbital elements

Epoch: 2026-09-20T03:33:19.804896Z

Period
94.01 min
Inclination
53.1603°
Eccentricity
0.0000892
Mean motion
15.31699002 rev/d
Perigee alt
470.1 km
Apogee alt
471.4 km
Semi-major
6,848.9 km
B*
-1.8029e-5
RAAN
302.8096°
Arg perigee
74.8454°
Mean anomaly
285.2646°
Rev number
24,390

§ Raw data

STARLINK-37901 52274U 22041P   26263.14814589 -.00000924  00000+0 -18029-4 0  99982 52274  53.1603 302.8096 0000892  74.8454 285.2646 15.31699002243906

JSON: /api/v1/satellites/52274 · /tle

For live sub-satellite position, see the globe view (requires WebGL).

§ Visibility from observer

Set your observer location to see the next 7 days of passes ≥ 10°. The values pass through the URL so the page stays shareable.

No JS? Fill the form by hand. The geolocation button needs JavaScript.